Simultaneous Nadir Overpasses (SNOs) Predictions

Prediction of SNOs between GOES-15 and TERRA Satellite Orbit:

Table of predicted SNOs for the next 14.0 days since TLE Epoch: 11/7/2025
Index Date Time (GOES-15) GOES-15 Lat,Lon TERRA Lat,Lon Distance(km) Time Diff (sec)
1 11/09/2025 17:00:41 -0.70, 61.80 -0.66, 62.06 28.87 80
2 11/10/2025 05:20:05 0.68, 61.69 1.57, 57.33 495.16 80
3 11/12/2025 05:03:14 0.70, 61.73 0.64, 62.03 34.50 80
4 11/14/2025 17:03:14 -0.69, 61.90 -0.67, 61.98 9.93 80
5 11/17/2025 05:03:05 0.69, 61.83 0.68, 61.97 15.31 80
6 11/19/2025 17:00:23 -0.68, 62.01 -0.70, 61.92 9.37 80
